{"data":{"norad_id":55922,"intl_designator":"2023-037J","name":"STARLINK-5863","alt_names":[],"object_type":"PAYLOAD","status":"ACTIVE","operator":null,"country":"US","launch_date":"2023-03-17","launch_site_code":"AFWTR","launch_vehicle":null,"mission":null,"orbit_class":"UNKNOWN","rcs_meters":null,"size_class":null,"mass_kg":null,"dimensions":null,"purposes":["comms"],"wikipedia_slug":null,"has_3d_model":false,"image_url":null,"decayed_at":null,"tle_current":{"epoch":"2026-05-25T02:26:59.915904Z","epoch_age_seconds":69439,"freshness":"FRESH","line1":"1 55922U 23037J   26145.10208236 -.00000153  00000+0 -50349-5 0  9994","line2":"2 55922  69.9990 111.7700 0003467 266.2031  93.8732 14.98329993174937","mean_motion":14.98329993,"eccentricity":0.0003467,"inclination_deg":69.999,"raan_deg":111.77,"arg_perigee_deg":266.2031,"mean_anomaly_deg":93.8732,"bstar":-5.0349e-6,"rev_number":17493,"period_min":96.106999574692,"perigee_km":569.64628070854,"apogee_km":574.46554447413,"semimajor_km":6950.1929125913,"source":"CELESTRAK","updated_at":"2026-05-25T13:38:17.890333Z"}}}